Regional Weather Roundup
Issued by NWS

Home | Current Version | Previous Version | Graphics & Text | Print | Product List | Glossary On
Versions: 1 2 3 4 5 6 7 8 9 10 11 12 13 14 15 16 17 18 19 20 21 22 23 24 25 26 27 28 29 30 31 32 33 34 35 36 37 38 39 40 41 42 43 44 45 46 47 48 49 50
000
ASUS44 KMEG 240700
RWRTN
TENNESSEE HOURLY STATE WEATHER ROUNDUP
NATIONAL WEATHER SERVICE MEMPHIS TN
200 AM CDT THU MAY 24 2018

TNZ002-004-019-021-049-052-054-088>092-240800-
WEST TENNESSEE

CITY           SKY/WX    TMP DP  RH WIND       PRES   REMARKS
MEMPHIS INTL   CLOUDY    73  72  96 CALM      30.07F
NWS MEMPHIS      N/A     71 N/A N/A MISG        N/A
JACKSON        FAIR      69  69 100 CALM      30.07F
DYERSBURG      FAIR      71  67  87 CALM      30.08
$$

TNZ008-025-027-028-033-062-065-066-240800-
NORTH MIDDLE TENNESSEE

CITY           SKY/WX    TMP DP  RH WIND       PRES   REMARKS
NASHVILLE      MOCLDY    69  65  86 CALM      30.09F
CLARKSVILLE    FAIR      67  63  87 CALM      30.09F
SMYRNA         FAIR      67  65  93 CALM      30.10S
CROSSVILLE     FAIR      63  61  93 CALM      30.14F
$$

TNZ061-075-076-078-094-096-097-240800-
SOUTH MIDDLE TENNESSEE

CITY           SKY/WX    TMP DP  RH WIND       PRES   REMARKS
$$

TNZ017-018-042-046-047-240800-
NORTHEAST TENNESSEE

CITY           SKY/WX    TMP DP  RH WIND       PRES   REMARKS
TRI CITIES     FAIR      64  63  96 CALM      30.13F
$$

TNZ012-013-036-069-073-074-240800-
CENTRAL EAST TENNESSEE

CITY           SKY/WX    TMP DP  RH WIND       PRES   REMARKS
KNOXVILLE      FAIR      71  65  81 N8        30.07F
OAK RIDGE      FAIR      69  66  90 CALM      30.10F
$$

TNZ083-085-099-240800-
SOUTHEAST TENNESSEE

CITY           SKY/WX    TMP DP  RH WIND       PRES   REMARKS
CHATTANOOGA    FAIR      71  66  84 CALM      30.07F
$$

SKY/WX REPORTED AS FAIR MEANS FEW OR NO CLOUDS BELOW
12 THOUSAND FEET.




USA.gov is the U.S. government's official web portal to all federal, state and local government web resources and services.